Location: Bruderhein
(53.8035°N, 112.9265°W)
Time: 13:46:41
(UTC+00:00)

deb Delta 139 - Pass Details

Date: 12 December 2023
Orbit: 731 x 794 km, 98.6° (Epoch: 01 March)

Event Time Altitude Azimuth Distance (km) Brightness Sun altitude
Rises 02:35:38 0° 201° (SSW) 3,238 ? -28.7°
Reaches altitude 10° 02:38:23 10° 215° (SW) 2,305 ? -29.1°
Maximum altitude 02:42:26 24° 268° (W) 1,554 ? -29.7°
Drops below altitude 10° 02:46:27 10° 322° (NW) 2,285 ? -30.3°
Sets 02:49:11 0° 336° (NNW) 3,204 ? -30.7°
